星链-2381 (STARLINK-2381 )

导读 | 星芒AI

STARLINK-2381 是 SpaceX Starlink 项目中的一颗低轨道通信卫星,属于第二代 Starlink 卫星(Gen2)批次。该卫星旨在为全球用户提供高速、低延迟的互联网服务,支持偏远地区的网络接入。它搭载了先进通信设备和激光链路,以提升数据传输效率和系统稳定性。STARLINK-2381 于 2023 年发射,是 SpaceX 扩展其卫星互联网网络计划的一部分,有助于增强 Starlink 全球覆盖能力与服务质量。

基本信息
目录编号:
47800
目录名称:
STARLINK-2381
国际标识:
2021-018P
轨道中心:
EARTH
卫星名称:
星链-2381
卫星全名:
星链-2381 (STARLINK-2381 )
卫星状态:
在轨 (已飞行1741 天)
发射日期:
2021-03-11 UTC
国别 :
美国 (US)
星等 :
--
轨道信息
数据来源 国际轨道数据 AOE轨道数据
星历时间 2025-12-16T08:35:14+0800
23小时前
查看轨道信息
2025-12-16T17:00:00+0800
14小时前
查看轨道信息
半长轴 6925.395km 6925.457km
偏心率 0.0001363 0.0001713
轨道倾角 53.053° 53.052°
近地点辐角 89.401° 81.199°
升交点赤经 247.202° 245.632°
平近点角 270.713° 20.875°
近地点 546.316km 546.135km
远地点 548.204km 548.509km
周期 95.593分钟 95.594分钟
每日圈数 15.06385 15.063648
详细信息
固有亮度:
5
最大亮度:
2.5
卫星平台:
Starlink V1.0
覆盖范围:
全球
运营商:
太空探索技术公司
运营商所在国:
美国
制造商(研发单位):
太空探索技术公司
制造商所在国:
美国
使用方式:
暂无
卫星简介
星链(Starlink)计划是由太空探索技术公司(SpaceX)提出的一个巨型低轨卫星互联网星座项目,计划在2019年至2024年间在太空搭建由约1.2万颗卫星组成的“星链”网络,其中1584颗将部署在地球上空550千米处的近地轨道,并从2020年开始工作。该卫星仍在工作。
2D轨道图
3D轨道图
轨道高度分析图
轨道倾角分析图
轨道综合分析图
查看轨道综合分析图